Regional Weather Roundup
Issued by NWS

Home | Current Version | Previous Version | Text Only | Print | Product List | Glossary On
Versions: 1 2 3 4 5 6 7 8 9 10 11 12 13 14 15 16 17 18 19 20 21 22 23 24 25 26 27 28 29 30 31 32 33 34 35 36 37 38 39 40 41 42 43 44 45 46 47 48 49 50
000
ASUS43 KBIS 261610
RWRND
NORTH DAKOTA REGIONAL WEATHER ROUNDUP
NATIONAL WEATHER SERVICE EASTERN NORTH DAKOTA/GRAND FORKS ND
1100 AM CDT FRI MAY 26 2017

  NOTE: "FAIR" INDICATES FEW OR NO CLOUDS BELOW 12,000 FEET WITH NO
  SIGNIFICANT WEATHER AND/OR OBSTRUCTIONS TO VISIBILITY.

NDZ001>003-009>011-017-261700-
...NORTHWEST NORTH DAKOTA...

CITY           SKY/WX    TMP DP  RH WIND       PRES   REMARKS
WILLISTON      CLOUDY    55  41  59 W18G28    29.78R
MINOT          CLOUDY    56  44  64 W24G33    29.70R
MINOT AFB      CLOUDY    54  46  73 W17G25    29.68R
$$

NDZ018>021-031>035-040>046-261700-
...SOUTHWEST NORTH DAKOTA...

CITY           SKY/WX    TMP DP  RH WIND       PRES   REMARKS
BISMARCK       CLOUDY    57  40  52 NW16G25   29.78R
DICKINSON      PTSUNNY   58  37  45 NW26G38   29.79R
GARRISON         N/A     54  42  64 W22G31    29.73R
HETTINGER      FAIR      59  37  44 NW30G39   29.83R
$$

NDZ004>008-012>016-024-026-027-054-261700-
...NORTHEAST NORTH DAKOTA...

CITY           SKY/WX    TMP DP  RH WIND       PRES   REMARKS
GRAND FORKS    FAIR      67  50  54 W16       29.64R
GRAND FORKS AF FAIR      66  49  54 W13       29.65R
DEVILS LAKE    PTSUNNY   59  45  59 W22G28    29.67S
$$

NDZ022-023-025-028>030-036>039-047>053-261700-
...SOUTHEAST NORTH DAKOTA...

CITY           SKY/WX    TMP DP  RH WIND       PRES   REMARKS
JAMESTOWN      FAIR      60  44  55 W17G29    29.72R
FARGO          FAIR      68  49  50 W10G20    29.68R
WAHPETON       FAIR      64  46  52 W15       29.72S
$$



USA.gov is the U.S. government's official web portal to all federal, state and local government web resources and services.